Lid_Strength_Index
2 3 1 2 6 6 8 7 5 6 6 4 4 5 6 5 7 10 1 0 -0 -0 -1 -1 -1 -1 -1 -1 -1 -1 -1 -1 -1 -1 -1 -1 -1 -1 -1 -1 -1 -1 -1 -1 -1 -1 -1 -1 -1
3 3 3 4 8 10 8 6 6 5 4 4 4 4 5 6 3 3 2 0 -0 -0 -1 -1 -1 -1 -1 -1 -1 -1 -1 -1 -1 -1 -1 -1 -1 -1 -1 -1 -1 -1 -1 -1 -1 -1 -1 -1 -1
-0 2 5 6 8 9 8 6 5 4 4 4 5 4 4 5 3 2 0 -0 -0 -0 -1 -1 -1 -1 -1 -1 -1 -1 -1 -1 -1 -1 -1 -1 -1 -1 -1 -1 -1 -1 -1 -1 -1 -1 -1 -1 -1
3 2 4 8 8 7 6 5 4 4 4 3 4 5 4 2 2 1 -0 -0 -0 -0 -1 -1 -1 -1 -1 -1 -1 -1 -1 -1 -1 -1 -1 -1 -1 -1 -1 -1 -1 -1 -1 -1 -1 -1 -1 -1 -1
3 4 7 9 8 6 5 5 4 5 4 4 4 5 5 2 1 0 0 -0 0 -0 -1 -1 -1 -1 -1 -1 -1 -1 -1 -1 -1 -1 -1 -1 -1 -1 -1 -1 -1 -1 -1 -1 -1 -1 -1 -1 -1
5 5 8 9 8 7 5 4 4 4 4 4 4 5 5 1 1 1 0 0 -0 -0 -1 -1 -1 -1 -1 -1 -1 -1 -1 -1 -1 -1 -1 -1 -1 -1 -1 -1 -1 -1 -1 -1 -1 -1 -1 -1 -1
6 7 8 7 7 7 6 3 4 4 4 4 3 6 4 3 1 0 0 -0 -0 -0 -1 -1 -1 -1 -1 -1 -1 -1 -1 -1 -1 -1 -1 -1 -1 -1 -1 -1 -1 -1 -1 -1 -1 -1 -1 -1 -1
5 6 8 8 7 7 4 4 3 4 4 2 3 6 6 3 1 0 0 0 -0 -0 -0 -1 -1 -1 -1 -1 -1 -1 -1 -1 -1 -1 -1 -1 -1 -1 -1 -1 -1 -1 -1 -1 -1 -1 -1 -1 -1
4 8 9 8 7 6 4 5 3 3 3 3 3 4 3 2 1 1 1 1 1 0 -0 -0 -1 -1 -1 -1 -1 -1 -1 -1 -1 -1 -1 -1 -2 -1 -1 -2 -2 -1 -1 -1 -1 -1 -1 -1 -2
6 8 8 5 5 5 4 4 4 4 5 4 4 3 2 2 2 2 2 2 2 1 0 -0 -0 -1 -1 -1 -1 -2 -1 -2 -2 -2 -2 -2 -2 -2 -2 -2 -2 -1 -1 -1 -1 -1 -1 -1 -1
7 8 6 5 4 4 4 4 3 4 5 4 5 4 3 3 2 2 2 2 2 1 0 0 -0 -0 -1 -0 -1 -1 -1 -1 -2 -2 -2 -2 -2 -2 -1 -1 -1 -2 -2 -1 -1 -1 -1 -2 -1
8 6 6 5 4 5 5 4 4 4 4 3 3 3 3 3 3 3 2 2 1 1 1 -0 -0 -1 -1 -1 -0 -1 -1 -1 -1 -1 -2 -2 -1 -1 -1 -1 -1 -2 -1 -1 -2 -1 -2 -1 -1
8 7 6 5 5 5 4 5 4 4 3 2 3 3 3 3 3 2 2 1 1 1 1 0 -0 -0 -1 -1 -1 -1 -1 -1 -1 -1 -1 -1 -1 -1 -1 -1 -1 -1 -1 -1 -1 -1 -1 -1 -1
6 6 6 5 5 5 6 6 5 4 3 3 3 4 3 3 3 2 2 2 1 1 1 0 -0 -0 -1 -0 -1 -1 -1 -1 -1 -1 -1 -2 -1 -1 -1 -1 -1 -1 -1 -1 -1 -1 -1 -1 -1
6 8 7 6 6 6 5 7 7 4 3 3 4 3 3 3 2 3 2 2 1 1 0 0 -0 -0 -0 -1 -1 -1 -1 -1 -1 -1 -2 -1 -2 -2 -1 -1 -1 -1 -2 -2 -2 -1 -1 -0 -1
9 8 10 7 6 6 6 9 6 4 3 4 4 4 3 3 3 2 2 1 1 1 1 -0 -0 -0 -0 -1 -0 -0 -1 -1 -1 -1 -1 -1 -1 -1 -1 -1 -1 -1 -2 -1 -1 -0 -0 -0 -0
10 11 10 9 6 6 7 8 5 5 5 4 4 4 4 3 3 2 2 1 1 1 1 1 -0 -0 -0 -0 -0 -1 -1 -1 -1 -1 -1 -1 -1 -1 -0 -0 -1 -2 -1 -1 -1 -0 -0 0 0
12 12 10 9 7 7 8 7 5 5 5 4 4 4 4 4 3 2 2 1 1 1 1 1 0 -0 -1 -0 -0 -0 -0 -0 -1 -1 -1 -1 -1 -1 -1 -0 -1 -1 -0 -0 -0 -1 -0 0 0
9 10 10 8 6 8 8 7 6 5 5 4 4 4 4 3 2 2 1 1 1 1 1 1 1 0 0 1 1 1 1 0 0 -0 -1 -1 -1 -1 -1 -0 -0 -1 -0 -0 -1 -0 0 1 0
9 9 10 8 6 8 8 8 6 5 5 4 4 4 4 3 3 2 2 1 1 1 1 1 1 0 0 0 0 0 0 0 -0 -0 -1 -1 -1 -1 -0 -1 -0 -0 0 -0 -0 0 1 1 0
10 9 10 8 8 8 8 8 7 6 5 5 4 3 3 3 3 2 2 1 1 1 1 0 0 0 0 -0 0 0 -0 0 1 0 0 -0 -1 -1 -1 -1 -0 -1 -0 -0 0 1 1 2 1
11 8 8 8 10 12 8 12 8 7 6 5 5 4 3 3 2 2 2 2 1 1 0 0 0 0 -0 -0 0 0 2 2 1 1 1 0 -1 -0 -1 -0 -0 -0 -0 -0 0 0 0 1 2
9 8 8 8 10 9 10 10 9 7 7 6 5 4 3 3 2 2 2 1 1 1 1 0 -0 0 -0 -0 -0 0 1 1 0 -0 -0 -0 -1 -1 -1 -0 -0 0 -0 -1 -0 -0 0 1 1
6 7 8 8 9 12 10 10 10 9 8 6 5 4 3 3 2 2 1 1 1 1 0 0 0 0 -0 0 -0 1 1 1 1 1 0 0 -0 -1 -0 -0 -0 -0 0 0 0 -0 0 0 1
7 8 12 13 13 13 9 10 8 6 6 5 5 4 3 3 2 2 2 2 1 1 0 1 1 1 0 0 0 0 1 0 1 0 -0 1 1 1 -0 -1 -0 -0 -0 -0 -0 -0 0 0 1
8 9 12 15 15 12 9 11 9 5 4 4 4 3 3 3 2 2 2 1 1 1 0 1 1 1 1 1 1 0 1 1 1 0 1 1 1 0 -1 -1 -1 -0 -0 -0 -1 -0 0 0 0
8 10 7 10 10 12 10 9 6 5 6 5 4 4 3 3 2 2 2 1 1 1 1 1 1 1 1 1 1 0 0 0 1 -0 -0 0 -0 0 -0 -0 -0 -0 -0 -1 -0 0 0 -0 -0
7 7 10 10 14 15 12 11 10 8 7 5 5 5 4 3 3 2 2 2 1 2 1 1 1 2 1 1 0 0 0 0 -0 -0 0 0 0 1 1 1 1 1 1 1 0 0 -0 -0 1
9 10 9 9 10 13 14 12 7 7 6 6 5 5 5 4 4 3 3 2 2 1 1 2 2 1 1 0 0 1 1 1 0 1 1 1 1 2 2 2 2 3 3 2 2 2 2 2 1
7 9 8 11 11 10 11 12 5 6 6 6 6 6 5 4 4 3 3 3 3 2 2 2 1 2 2 1 1 2 2 2 2 2 2 3 3 3 4 4 4 5 5 4 4 3 3 3 2